Flag for Brazil Weather past 2 weeks in Fortaleza, Ceará, Brazil

Now
79 °F

Passing clouds.


Feels Like: 82 °F
Forecast: 76 / 84 °F
Wind: 8 mph from Southeast

Location: Fortaleza Aeropor-To

Current Time: Jul 7, 2015 at 11:58:20 PM

Latest Report: Jul 7, 2015 at 11:00 PM


Visibility: N/A

Pressure: 29.92 "Hg

Humidity: 79%

Dew point: 72 °F

Location of FortalezaLocation

Historic Weather in Fortaleza — Graph

°F

Fortaleza temperature yesterday

Maximum temperature yesterday: 86 °F (at 12:00 PM)
Minimum temperature yesterday: 73 °F (at 4:00 AM)
Average temperature yesterday: 79 °F

Past Weeks' High & Low Weather Summary

 TemperatureHumidityPressure
High88 °F (Jun 27, 12:00 PM)94% (Jul 5, 2:00 AM)30.12 "Hg (Jul 5, 2:00 AM)
Low72 °F (Jun 25, 8:00 AM)40% (Jun 27, 12:00 PM)29.83 "Hg (Jul 6, 2:00 PM)
Average79 °F73%29.96 "Hg
* Reported Jun 22 10:00 PM — Jul 7 10:00 PM, Fortaleza, Weather by CustomWeather, © 2015

Note: Actual official high and low records may vary slightly from our data, if they occured in-between our weather recording intervals... More about our weather records

Advertising

Fortaleza weather history for previous 24 hours

 ConditionsComfort  
Time TempWeatherWind HumidityBarometerVisibility
10:00 PM
Tue, Jul 7
79 °FClear.6 mph74%29.92 "Hg10 mi
9:00 PM79 °FClear.8 mph74%29.92 "Hg10 mi
8:00 PM79 °FClear.7 mph74%29.92 "Hg10 mi
7:00 PM79 °FClear.9 mph74%29.89 "Hg10 mi
6:00 PM79 °FClear.10 mph70%29.89 "Hg10 mi
5:00 PM81 °FSunny.14 mph66%29.86 "Hg10 mi
4:00 PM82 °FSunny.17 mph55%29.86 "Hg10 mi
3:00 PM84 °FPassing clouds.16 mph51%29.86 "HgN/A
2:00 PM86 °FPassing clouds.16 mph46%29.86 "HgN/A
1:00 PM88 °FPassing clouds.15 mph43%29.89 "HgN/A
12:00 PM86 °FPassing clouds.13 mph43%29.89 "HgN/A
11:00 AM86 °FPassing clouds.13 mph49%29.92 "HgN/A
10:00 AM82 °FPassing clouds.15 mph58%29.95 "HgN/A
9:00 AM81 °FPassing clouds.14 mph66%29.95 "HgN/A
8:00 AM79 °FScattered clouds.10 mph70%29.95 "HgN/A
7:00 AM77 °FScattered clouds.12 mph74%29.92 "Hg10 mi
6:00 AM75 °FBroken clouds.7 mph83%29.92 "HgN/A
5:00 AM75 °FPassing clouds.6 mph83%29.92 "HgN/A
4:00 AM75 °FClear.5 mph83%29.89 "Hg10 mi
3:00 AM77 °FClear.20 mph79%29.89 "Hg10 mi
2:00 AM79 °FPassing clouds.8 mph74%29.89 "HgN/A
1:00 AM79 °FPassing clouds.9 mph74%29.89 "HgN/A
12:00 AM79 °FPassing clouds.10 mph79%29.92 "HgN/A
11:00 PM
Mon, Jul 6
79 °FPassing clouds.6 mph79%29.92 "HgN/A
Weather by CustomWeather, © 2015

See weather overviewHow to use our weather pages